James M. Bauer (Near-Earth Object Wide-field Infrared Survey Explorer)
軌道要素
Epoch 2022 Aug. 9.0 TT = JDT 2459800.5
T 2022 Mar. 23.45889 TT Rudenko
q 1.5850084 (2000.0) P Q
n 0.00842702 Peri. 200.62878 -0.52448671 +0.08153684
a 23.9158912 Node 58.69562 -0.57332171 +0.70208355
e 0.9337257 Incl. 97.29375 -0.62945683 -0.70741108
P 117
From 109 observations 2022 Mar. 30-June 28, mean residual 0".5.